Tacoma Narrows, WA
on Saturday, December 1, 2012

Saturday
Previous Day Next Day
Daily Summary
 ActualAverageRecord
Temperature
Mean Temperature °F °F  
Max Temperature 53°F 45°F 54°F (2008)
Min Temperature 46°F 38°F 32°F (2005)
Degree Days
Heating Degree Days 16    
Moisture
Dew Point 42°F   
Average Humidity 75    
Maximum Humidity 93    
Minimum Humidity 59    
Precipitation
Precipitation 0.28 in in in ()
Wind
Wind Speed 12 mph   
Max Wind Speed 30 mph   
Max Gust Speed 41 mph   
Visibility 10 miles   
Events Rain   
Averages and records for this station are not official NWS values.
Key: T is trace of precipitation, MM is missing value
Source: NWS Daily Summary
Seasonal Weather Averages
Time(PST)TemperatureDew PointHumidity Pressure Visibility Wind DirectionWind SpeedGust SpeedPrecipitationEvents Conditions
12:14 AM 48.2°F 46.4°F 93% 29.41 in 10.0 miles SE 3.5 mph - N/A   Overcast
12:53 AM 50.0°F 46.0°F 86% 29.39 in 10.0 miles South 9.2 mph - 0.01 in Rain Light Rain
1:53 AM 48.9°F 46.0°F 90% 29.39 in 7.0 miles South 9.2 mph - 0.06 in Rain Light Rain
2:34 AM 48.2°F 46.4°F 93% 29.39 in 8.0 miles South 8.1 mph - 0.05 in Rain Light Rain
2:53 AM 48.0°F 46.0°F 93% 29.40 in 6.0 miles South 10.4 mph - 0.08 in Rain Light Rain
3:15 AM 48.2°F 46.4°F 93% 29.41 in 6.0 miles South 15.0 mph 20.7 mph 0.05 in Rain Rain
3:45 AM 50.0°F 44.6°F 82% 29.43 in 10.0 miles South 27.6 mph 35.7 mph 0.09 in Rain Light Rain
3:53 AM 48.9°F 44.1°F 83% 29.44 in 9.0 miles South 29.9 mph 41.4 mph 0.10 in Rain Light Rain
4:53 AM 48.9°F 43.0°F 80% 29.49 in 10.0 miles South 20.7 mph 29.9 mph 0.02 in   Overcast
5:53 AM 48.0°F 42.1°F 80% 29.54 in 10.0 miles South 20.7 mph 28.8 mph N/A   Clear
6:53 AM 46.9°F 41.0°F 80% 29.59 in 10.0 miles SSW 16.1 mph - 0.00 in   Mostly Cloudy
7:53 AM 46.9°F 41.0°F 80% 29.62 in 10.0 miles South 18.4 mph 28.8 mph N/A   Mostly Cloudy
8:53 AM 46.4°F 41.0°F 81% 29.62 in 10.0 miles South 12.7 mph - N/A   Overcast
9:53 AM 48.9°F 39.0°F 69% 29.63 in 10.0 miles South 13.8 mph 21.9 mph N/A   Overcast
10:53 AM 52.0°F 39.0°F 61% 29.62 in 10.0 miles South 19.6 mph 27.6 mph N/A   Overcast
11:53 AM 53.1°F 39.9°F 61% 29.61 in 10.0 miles South 19.6 mph 27.6 mph N/A   Mostly Cloudy
12:53 PM 53.1°F 39.0°F 59% 29.60 in 10.0 miles South 21.9 mph 28.8 mph N/A   Mostly Cloudy
1:53 PM 52.0°F 39.9°F 63% 29.60 in 10.0 miles South 18.4 mph 32.2 mph 0.00 in Rain Light Rain
2:53 PM 52.0°F 39.9°F 63% 29.59 in 10.0 miles SSW 15.0 mph - 0.00 in   Overcast
3:53 PM 48.9°F 44.1°F 83% 29.58 in 10.0 miles SW 5.8 mph - 0.01 in   Overcast
4:53 PM 50.0°F 41.0°F 71% 29.56 in 10.0 miles South 9.2 mph - 0.00 in   Mostly Cloudy
5:53 PM 50.0°F 39.0°F 66% 29.54 in 10.0 miles South 10.4 mph 18.4 mph N/A   Partly Cloudy
6:53 PM 50.0°F 37.9°F 63% 29.49 in 10.0 miles South 6.9 mph - N/A   Partly Cloudy
7:53 PM 50.0°F 37.9°F 63% 29.47 in 10.0 miles Calm Calm - N/A   Mostly Cloudy
8:53 PM 50.0°F 37.9°F 63% 29.44 in 10.0 miles SSE 6.9 mph 16.1 mph 0.00 in   Overcast
9:53 PM 48.9°F 37.9°F 66% 29.40 in 10.0 miles SE 6.9 mph - N/A   Overcast
10:53 PM 48.9°F 39.0°F 69% 29.34 in 10.0 miles Variable 5.8 mph - 0.00 in Rain Light Rain
11:53 PM 48.9°F 37.9°F 66% 29.27 in 10.0 miles Calm Calm - 0.00 in   Overcast
Moon Phase
Dec. 01 Dec. 06 Dec. 13 Dec. 20 Dec. 28
Sunrise:07:37 AM (PST) Moon Rise:07:20 PM (PST)
Sunset:04:21 PM (PST) Moon Set:09:50 AM (PST)

Copyright © 2014 The Weather Underground, Inc.